DW9064 Weather Reports


Display with metric or nautical units.
time (UTC)temp
F
wind
direction
speed
MPH
gust
MPH
rain 1hr
in
rain 24hr
in
rain mn
in
humidity
%
barometer
mb
20260905004747 60 91 2.0 6.0 0.00 0.01 0.01 76 1015.7
20260905003847 60 74 3.0 6.0 0.01 0.01 0.01 74 1015.6
20260905002947 61 79 2.0 5.0 0.01 0.01 0.01 73 1015.6
20260905001147 63 75 2.0 7.0 0.01 0.01 0.01 71 1015.6
20260905000248 63 81 4.0 7.0 0.01 0.01 0.01 71 1015.5
20260904235347 63 91 2.0 6.0 0.01 0.01 0.01 73 1015.5
20260904232647 59 52 3.0 8.0 0.00 0.00 0.00 78 1015.7
20260904231746 58 343 4.0 9.0 0.00 0.00 0.00 77 1015.5
20260904230847 58 341 4.0 12.0 0.00 0.00 0.00 73 1015.7
20260904225947 60 5 6.0 11.0 0.00 0.00 0.00 67 1015.7
20260904225046 63 42 5.0 11.0 0.00 0.00 0.00 55 1015.6
20260904224147 65 99 2.0 8.0 0.00 0.00 0.00 49 1015.5
20260904223246 65 178 4.0 8.0 0.00 0.00 0.00 48 1015.4
20260904222346 64 178 5.0 9.0 0.00 0.00 0.00 46 1015.2
20260904221446 64 201 4.0 8.0 0.00 0.00 0.00 46 1015.2
20260904220547 64 191 3.0 8.0 0.00 0.00 0.00 47 1015.2
20260904215647 63 172 5.0 8.0 0.00 0.00 0.00 50 1015.2
20260904214746 63 181 2.0 8.0 0.00 0.00 0.00 50 1015.2
20260904212946 64 208 2.0 8.0 0.00 0.00 0.00 49 1015.0
20260904212046 64 183 4.0 8.0 0.00 0.00 0.00 49 1014.8
20260904211146 64 182 4.0 8.0 0.00 0.00 0.00 47 1014.7
20260904210246 64 171 4.0 8.0 0.00 0.00 0.00 48 1014.7
20260904205346 64 176 4.0 9.0 0.00 0.00 0.00 47 1014.5
20260904204446 64 183 3.0 10.0 0.00 0.00 0.00 47 1014.5
20260904203546 63 196 2.0 10.0 0.00 0.00 0.00 48 1014.5
20260904202646 63 181 2.0 9.0 0.00 0.00 0.00 52 1014.5
20260904201746 63 197 2.0 12.0 0.00 0.00 0.00 49 1014.5
20260904200846 64 191 9.0 12.0 0.00 0.00 0.00 49 1014.5
20260904195946 63 178 5.0 15.0 0.00 0.00 0.00 50 1014.5
20260904195046 63 173 6.0 11.0 0.00 0.00 0.00 52 1014.4
20260904194146 62 173 7.0 14.0 0.00 0.00 0.00 56 1014.5
20260904193246 62 184 7.0 12.0 0.00 0.00 0.00 57 1014.6
20260904191446 61 182 7.0 15.0 0.00 0.00 0.00 58 1014.6
20260904190546 61 204 8.0 15.0 0.00 0.00 0.00 57 1014.5
20260904185646 61 201 8.0 15.0 0.00 0.00 0.00 56 1014.7
20260904184746 61 198 8.0 14.0 0.00 0.00 0.00 55 1014.6
20260904183846 62 190 7.0 17.0 0.00 0.00 0.00 55 1014.5
20260904182946 62 189 10.0 17.0 0.00 0.00 0.00 57 1014.4
20260904182046 61 188 8.0 12.0 0.00 0.00 0.00 59 1014.5
20260904181146 60 196 6.0 11.0 0.00 0.00 0.00 60 1014.3
20260904180246 60 179 8.0 11.0 0.00 0.00 0.00 61 1014.4
20260904175346 60 185 2.0 8.0 0.00 0.00 0.00 61 1014.5
20260904174446 58 178 5.0 8.0 0.00 0.00 0.00 65 1014.4
20260904172646 57 175 2.0 6.0 0.00 0.00 0.00 68 1014.6
20260904171746 56 163 3.0 4.0 0.00 0.00 0.00 68 1014.4
20260904170846 56 141 2.0 5.0 0.00 0.00 0.00 69 1014.5
20260904165946 56 118 0.0 4.0 0.00 0.00 0.00 74 1014.4
20260904165046 55 103 0.0 3.0 0.00 0.00 0.00 75 1014.4
20260904164146 54 137 1.0 4.0 0.00 0.00 0.00 77 1014.4
20260904163246 54 136 2.0 4.0 0.00 0.00 0.00 78 1014.3
20260904161446 53 100 1.0 4.0 0.00 0.00 0.00 81 1014.1
20260904160546 53 93 1.0 4.0 0.00 0.00 0.00 82 1014.2
20260904154746 52 99 0.0 4.0 0.00 0.00 0.00 83 1014.0
20260904153846 52 110 2.0 4.0 0.00 0.00 0.00 84 1013.8
20260904152946 51 83 1.0 4.0 0.00 0.00 0.00 86 1013.9
20260904152048 51 129 1.0 3.0 0.00 0.00 0.00 87 1013.8
20260904151146 51 174 1.0 2.0 0.00 0.00 0.00 87 1013.7
20260904150246 51 145 0.0 4.0 0.00 0.00 0.00 89 1013.6
20260904145346 51 121 0.0 3.0 0.00 0.01 0.00 90 1013.5
20260904144446 50 67 0.0 4.0 0.00 0.02 0.00 92 1013.2
20260904143546 49 53 1.0 3.0 0.00 0.02 0.00 93 1013.2
20260904142645 49 78 0.0 3.0 0.00 0.03 0.00 94 1013.1
20260904141745 48 64 0.0 3.0 0.00 0.04 0.00 94 1013.0
20260904140846 48 39 0.0 4.0 0.00 0.04 0.00 95 1012.9
20260904135945 47 334 2.0 4.0 0.00 0.04 0.00 94 1012.7
20260904135045 47 322 4.0 5.0 0.00 0.04 0.00 94 1012.6
20260904134145 47 321 4.0 5.0 0.00 0.04 0.00 94 1012.7
20260904133245 47 331 3.0 4.0 0.00 0.04 0.00 94 1012.6
20260904132346 47 316 3.0 4.0 0.00 0.04 0.00 93 1012.3
20260904131446 47 337 3.0 4.0 0.00 0.06 0.00 93 1012.2
20260904130545 47 285 3.0 4.0 0.00 0.06 0.00 93 1012.1
20260904125645 47 16 1.0 4.0 0.00 0.06 0.00 93 1012.0
20260904124745 47 1 2.0 5.0 0.00 0.07 0.00 93 1011.8
20260904123845 47 333 3.0 5.0 0.00 0.07 0.00 93 1011.9
20260904122945 47 327 4.0 4.0 0.00 0.07 0.00 93 1011.7
20260904121145 47 326 3.0 4.0 0.00 0.08 0.00 91 1011.5
20260904120245 48 335 2.0 3.0 0.00 0.08 0.00 91 1011.4
20260904115345 48 2 2.0 4.0 0.00 0.08 0.00 90 1011.2
20260904114445 48 41 0.0 4.0 0.00 0.09 0.00 91 1011.2
20260904113545 48 15 1.0 4.0 0.00 0.09 0.00 91 1011.1
20260904111745 48 58 1.0 3.0 0.00 0.09 0.00 91 1011.1
20260904110845 48 41 2.0 4.0 0.00 0.09 0.00 91 1010.9
20260904105945 47 16 2.0 4.0 0.00 0.09 0.00 91 1010.9
20260904104145 48 27 3.0 4.0 0.00 0.09 0.00 90 1011.0
20260904103245 48 29 1.0 4.0 0.00 0.09 0.00 90 1010.6
20260904102345 48 15 1.0 4.0 0.00 0.09 0.00 90 1010.5
20260904101445 48 355 2.0 5.0 0.00 0.09 0.00 90 1010.4
20260904100545 47 19 2.0 5.0 0.00 0.09 0.00 90 1010.4
20260904095645 47 14 4.0 5.0 0.00 0.09 0.00 90 1010.3
20260904094745 47 5 2.0 4.0 0.00 0.09 0.00 90 1010.7
20260904093845 47 350 2.0 6.0 0.00 0.09 0.00 90 1010.6
20260904092945 47 346 3.0 5.0 0.00 0.09 0.00 90 1010.4
20260904092045 46 16 2.0 4.0 0.00 0.09 0.00 89 1010.6
20260904091145 46 340 3.0 6.0 0.00 0.09 0.00 89 1010.4
20260904085345 46 343 2.0 5.0 0.00 0.09 0.00 89 1010.2
20260904083545 47 5 4.0 6.0 0.00 0.09 0.00 89 1010.3
20260904082645 47 348 4.0 6.0 0.00 0.09 0.00 89 1010.6
20260904080845 47 322 4.0 8.0 0.00 0.09 0.00 88 1010.4
20260904075945 47 324 4.0 8.0 0.00 0.09 0.00 87 1010.2
20260904074145 48 333 4.0 9.0 0.00 0.09 0.00 87 1010.4
20260904073245 48 354 5.0 7.0 0.00 0.09 0.00 86 1010.2
20260904072345 48 3 4.0 6.0 0.00 0.09 0.00 88 1010.5
20260904071445 47 12 2.0 6.0 0.00 0.09 0.00 88 1010.5
20260904070545 47 326 3.0 8.0 0.00 0.09 0.00 89 1010.4
20260904065645 47 317 5.0 7.0 0.00 0.09 0.09 88 1010.6
20260904063845 48 323 5.0 8.0 0.00 0.09 0.09 86 1010.2
20260904062945 49 326 4.0 7.0 0.00 0.09 0.09 84 1010.6
20260904062045 49 338 4.0 7.0 0.00 0.09 0.09 82 1010.4
20260904061145 50 336 4.0 8.0 0.00 0.12 0.09 82 1010.3
20260904060244 50 337 4.0 8.0 0.00 0.12 0.09 83 1010.3
20260904054127 50 10 2.0 5.0 0.00 0.12 0.09 86 1010.2
20260904053227 49 356 2.0 7.0 0.00 0.12 0.09 87 1010.3
20260904051427 49 330 4.0 7.0 0.00 0.12 0.09 89 1010.4
20260904043827 49 314 5.0 8.0 0.00 0.12 0.09 88 1010.1
20260904042927 49 314 5.0 8.0 0.00 0.12 0.09 88 1010.1
20260904042027 49 320 7.0 8.0 0.00 0.12 0.09 87 1010.3
20260904041127 50 314 6.0 8.0 0.00 0.12 0.09 85 1010.0
20260904040227 50 319 5.0 8.0 0.00 0.12 0.09 84 1009.9
20260904035327 51 323 7.0 8.0 0.00 0.12 0.09 84 1009.9
20260904034427 51 318 6.0 8.0 0.00 0.12 0.09 83 1010.0
20260904033527 52 318 7.0 9.0 0.00 0.12 0.09 82 1009.9
20260904032627 53 314 6.0 9.0 0.00 0.12 0.09 81 1009.8
20260904031727 54 318 6.0 9.0 0.00 0.12 0.09 81 1009.7
20260904030827 54 321 7.0 8.0 0.00 0.12 0.09 78 1009.7
20260904025927 55 316 7.0 9.0 0.00 0.12 0.09 75 1009.6
20260904025026 56 314 6.0 8.0 0.00 0.12 0.09 74 1009.5
20260904023226 57 318 7.0 8.0 0.00 0.12 0.09 74 1009.4
20260904022326 57 315 7.0 8.0 0.00 0.12 0.09 74 1009.5
20260904021427 58 314 4.0 7.0 0.00 0.12 0.09 74 1009.6
20260904020527 58 314 5.0 7.0 0.00 0.12 0.09 70 1009.5
20260904015626 59 320 6.0 8.0 0.00 0.12 0.09 70 1009.4
20260904014726 60 316 6.0 7.0 0.00 0.12 0.09 68 1009.4
20260904013827 60 322 5.0 7.0 0.00 0.12 0.09 65 1009.4
20260904012926 61 318 5.0 6.0 0.00 0.12 0.09 63 1009.4
20260904012026 62 321 4.0 6.0 0.00 0.12 0.09 58 1009.4
20260904011126 63 336 4.0 6.0 0.00 0.12 0.09 51 1009.5
20260904010226 64 322 4.0 6.0 0.00 0.12 0.09 47 1009.5
20260904005326 66 315 4.0 5.0 0.00 0.12 0.09 43 1009.4